www.pogodaiklimat.ru

Погода и климат >> Архив погоды >> Германия >> Биндерслебен


ПОГОДА в Биндерслебене

  • Прогноз погоды в Биндерслебене
  • Монитор погоды в Биндерслебене

АРХИВ ПОГОДЫ в Биндерслебене

Время (UTC), дата Ветер
(напр.,м/с)
 
Видим.   Явления Облачность Т
(С)
Тd
(С)
f
(%)
Тe
(С)
Тes
(С)
Комфортность P
(гПа)
Po
(гПа)
Тmin
(С)
Tmax
(С)
R
(мм)
R24
(мм)
S
(см)
22 10.06 ЮЗ 1 50 км 8/1 1500 м
[Sc Ac trans Cs]
+15.7 +14.1 90 +16 +16 1010.3 972.9
23 10.06 ЮЗ 2 40 км 9/4 1500 м
[Sc Ac trans Cs]
+14.9 +13.9 94 +15 +15 1011.5 974.0
00 11.06 ЮЗ 2 40 км {дождь} 9/9 1500 м
[Sc]
+15.1 +14.1 94 +15 +15 1011.0 973.5 2
01 11.06 ЮЗ 1-1
{4}
40 км 9/9 1500 м
[Sc]
+14.9 +14.0 94 +15 +15 1010.9 973.4
02 11.06 З 1 40 км 9/5 1500 м
[Sc As trans]
+15.0 +14.0 94 +15 +15 1009.1 971.7
03 11.06 ЮЗ 4 25 км 9/9 1440 м
[Sc]
+14.2 +13.6 96 +13 +13 1009.6 972.1
04 11.06 З 5-6
{6}
30 км 10/9 1300 м
[Sc]
+14.8 +13.6 93 +13 +13 1010.2 972.7
05 11.06 З 5 40 км 9/9 480 м
[Cu Sc]
+14.7 +13.6 93 +13 +13 1010.9 973.4
06 11.06 З 6 35 км в посл. час дождь 10/9 600 м
[Cu Sc]
+15.0 +13.7 92 +13 +13 1011.1 973.6 +13.5 +17.4 2
07 11.06 З 5 60 км 8/3 400 м
[Cu Sc Ac cast]
+15.6 +13.3 86 +14 +16 1010.6 973.2
08 11.06 З 5-7
{9}
60 км 3/3 330 м
[Cu med, cong Ci fib]
+17.6 +14.2 80 +17 +21 1010.5 973.4
09 11.06 СЗ 2 60 км 8/6 480 м
[Cu med, cong Ci]
+18.5 +14.0 75 +20 +25 1010.4 973.4
10 11.06 СЗ 2 70 км 9/9 480 м
[Cu Sc]
+18.4 +13.7 74 +19 +21 1010.7 973.6
11 11.06 С 2 70 км 9/8 660 м
[Cu Sc Ci sp]
+20.0 +13.7 67 +23 +26 комфорт 1010.6 973.7
12 11.06 С 2 70 км 9/9 800 м
[Cu Sc]
+21.1 +14.1 64 +24 +25 комфорт 1010.3 973.6
13 11.06 С 2 70 км 9/9 800 м
[Cu Sc]
+20.6 +13.0 62 +24 +25 комфорт 1010.3 973.5
14 11.06 С 2 70 км 9/9 900 м
[Cu Sc]
+21.1 +13.7 63 +24 +25 комфорт 1010.3 973.6
15 11.06 С 3 70 км 9/9 1080 м
[Cu Sc]
+21.9 +13.3 58 +25 +25 комфорт 1009.9 973.3
16 11.06 С 4 70 км 9/5 1080 м
[Cu Sc Cs]
+22.4 +13.2 56 +25 +27 комфорт 1009.4 972.9
17 11.06 С 4 70 км 9/9 1080 м
[Cu Sc]
+21.5 +14.2 63 +24 +25 комфорт 1009.0 972.4
18 11.06 СЗ 4 70 км 9/9 600 м
[Cu Sc]
+20.7 +14.7 68 +24 +24 комфорт 1009.4 972.7 +15.1 +22.9
19 11.06 С 3-4
{6}
70 км 9/9 960 м
[Sc]
+19.9 +15.3 75 +22 +22 комфорт 1009.6 972.8
20 11.06 С 3-4
{6}
60 км зарница 9/9 1230 м
[Sc]
+19.2 +15.1 77 +21 +21 комфорт 1008.5 971.6
21 11.06 С 5 35 км слаб. ливневой дождь 9/9 700 м
[Cb cap]
+18.5 +14.7 79 +19 +19 1008.3 971.4 0.0
22 11.06 З 3 25 км гроза, ливневой дождь 9/9 1080 м
[Cb cap]
+16.3 +15.3 94 +16 +16 1011.1 973.8
23 11.06 С 3-5
{12}
40 км в посл. час гроза {ливн. осадки} 4/4 800 м
[Cu Sc]
+15.6 +14.0 90 +15 +15 1008.8 971.5
00 12.06 С 1 40 км {гроза, ливн. осадки} 3/3 100 м
[St]
+14.4 +13.5 94 +15 +15 1010.0 972.5 0.9
01 12.06 С 1-2
{2}
30 км туман поземный 3/3 400 м
[Cu hum]
+14.3 +13.4 94 +15 +15 1009.9 972.4
02 12.06 ЮЗ 2-3
{3}
20 км местами туман поземный 4/0
[Ci fib]
+12.6 +12.3 98 +12 +12 1010.3 972.5
03 12.06 З 2 4000 м туман на расстоянии 4/1 400 м
[Cu hum Ci fib]
+13.4 +12.8 96 +13 +13 1009.6 971.9
04 12.06 З 1 4000 м туман на расстоянии 9/4 420 м
[St Ac und Ci fib]
+13.5 +13.1 97 +14 +14 1009.4 971.8
05 12.06 СВ 1-3
{3}
4000 м туман на расстоянии 10/10 180 м
[St]
+14.7 +13.9 95 +15 +15 1008.7 971.3
06 12.06 В 2 1200 м туман на расстоянии 10/10 50 м
[St]
+14.7 +14.0 96 +14 +14 1008.5 971.1 +11.8 +20.7 0.9
07 12.06 В 1-2
{3}
600 м туман 10/10 30 м
[St]
+15.1 +14.6 97 +16 +16 1008.1 970.7
08 12.06 СВ 2 4000 м в посл. час туман 10/9 60 м
[St]
+15.6 +14.6 94 +15 +16 1007.7 970.4
09 12.06 СВ 2 2000 м дымка {туман} 10/9 90 м
[St]
+16.0 +15.2 95 +16 +17 1007.4 970.2
10 12.06 С 1-2
{4}
3000 м дымка 10/9 90 м
[St]
+16.4 +15.2 93 +17 +18 1007.4 970.2
11 12.06 С 2-2
{3}
7000 м дымка 10/9 180 м
[St]
+17.8 +15.5 86 +18 +19 1007.4 970.4
12 12.06 З 3 10 км {туман} 10/9 270 м
[Cu med, cong]
+18.8 +16.1 84 +20 +21 1008.1 971.2
13 12.06 З 6 18 км 9/9 240 м
[Cu Sc]
+19.7 +16.5 82 +22 +22 комфорт 1008.6 971.8
14 12.06 З 7 60 км в посл. час дождь 10/9 400 м
[Cu Sc]
+16.6 +13.3 81 +15 +16 1010.0 972.7
15 12.06 З 5 60 км в посл. час дождь 9/5 480 м
[Cu Sc Ac trans]
+15.8 +12.8 82 +15 +16 1010.4 973.0 0.0
16 12.06 З 7 >70 км слаб. дождь 8/4 480 м
[Cu Sc Ac As]
+15.0 +10.8 76 +13 +14 1010.8 973.3
17 12.06 З 4 60 км в посл. час ливневой дождь 6/1 480 м
[Cb calv Ac cuf]
+14.0 +11.9 87 +13 +14 1011.9 974.2
18 12.06 ЮЗ 3 70 км в посл. час ливневой дождь 5/1 300 м
[Cu med, cong Ac cuf]
+15.6 +11.9 79 +15 +16 1011.5 974.0 +13.7 +19.8 0.3
19 12.06 ЮЗ 4-5
{6}
70 км 4/0
[Ac trans]
+14.7 +11.4 81 +13 +13 1011.5 973.9
20 12.06 Ю 2-3
{4}
70 км 4/0
[Ac As]
+13.6 +11.1 85 +13 +13 1012.6 974.8
21 12.06 Ю 1 70 км 3/0
[Ac As]
+13.3 +11.3 88 +13 +13 1013.2 975.4
22 12.06 ЮЗ 2 60 км 5/1 2000 м
[Cb calv Ac As]
+12.5 +10.6 88 +12 +12 1014.0 976.0
23 12.06 Ю 3 50 км 9/4 2000 м
[Cb calv Ac As]
+13.1 +10.7 85 +12 +12 1014.4 976.5
00 13.06 ЮЗ 3 50 км 9/0
[Ac As]
+12.2 +10.6 90 +11 +11 1014.4 976.4
01 13.06 Ю 5-6
{6}
50 км 9/0
[Ac As]
+13.0 +10.8 86 +11 +11 1014.8 976.9
02 13.06 Ю 3 50 км в посл. час ливневой дождь 9/3 2000 м
[Cb calv Ac As]
+12.9 +11.1 89 +11 +11 1014.3 976.4
03 13.06 Ю 3 50 км {ливн. осадки} 8/0
[Ac As]
+12.6 +10.6 88 +11 +11 1014.2 976.2 0.0
04 13.06 Ю 4-5
{5}
40 км 3/0
[Ac cast]
+12.0 +10.4 90 +10 +10 1014.7 976.6
05 13.06 Ю 5-6
{6}
50 км осадки на расстоянии 4/0
[Ac cast]
+13.3 +10.8 85 +11 +12 1014.9 977.0
06 13.06 Ю 5 50 км {ливн. осадки} 6/0
[Ac cast]
+14.8 +11.5 81 +13 +15 1014.7 977.0 +11.8 +15.9 0.0
07 13.06 Ю 3-4
{6}
>70 км осадки на расстоянии 8/0
[Ac cast]
+16.4 +11.3 72 +16 +19 1014.8 977.3
08 13.06 Ю 3-5
{5}
>70 км 5/0
[Ac cast]
+19.7 +9.1 50 +21 +27 комфорт 1014.4 977.3
09 13.06 ЮЗ 4 >70 км осадки на расстоянии 6/1 1380 м
[Cu hum Ac cast]
+20.4 +8.8 47 +22 +27 комфорт 1014.3 977.3
10 13.06 З 4 >70 км в посл. час дождь 5/1 1380 м
[Cu hum Ac cast]
+20.1 +8.6 47 +21 +28 комфорт 1014.5 977.4
11 13.06 З 4-6
{8}
>70 км в посл. час дождь 5/3 1500 м
[Cu Sc Ac cast]
+21.2 +8.4 44 +22 +29 комфорт 1014.2 977.3
12 13.06 З 2 >70 км {дождь} 6/6 1500 м
[Cu Sc]
+21.2 +9.6 47 +23 +29 комфорт 1013.9 977.0 0.0
13 13.06 С 1 >70 км 6/6 1500 м
[Cu Sc]
+21.6 +8.6 43 +23 +30 комфорт 1013.7 976.9
14 13.06 СВ 1-2
{3}
>70 км 6/6 1500 м
[Cu Sc]
+22.0 +8.6 42 +23 +29 комфорт 1013.7 976.9
15 13.06 З 2 >70 км в посл. час гроза 5/5 1500 м
[Cb calv Ac cuf]
+22.7 +10.4 46 +25 +29 комфорт 1013.2 976.5
16 13.06 ЮВ 1-2
{5}
>70 км 4/4 1500 м
[Cu med, cong Ci ing]
+22.7 +9.8 44 +24 +28 комфорт 1013.1 976.4
17 13.06 Ю 2-4
{4}
>70 км осадки на расстоянии 3/3 1500 м
[Cu med, cong Ci ing]
+23.5 +8.9 39 +24 +26 комфорт 1012.9 976.3
18 13.06 З 5 >70 км в посл. час гроза {ливн. осадки} 4/4 1500 м
[Cb calv Ci ing]
+18.7 +10.6 59 +19 +19 1014.0 976.8 +14.9 +23.9 0.0
19 13.06 З 6-8
{12}
>70 км в посл. час гроза 4/3 1500 м
[Cb cap Ac cuf]
+17.2 +9.1 59 +16 +16 1014.8 977.4
20 13.06 З 5-5
{6}
>70 км 1/1 1500 м
[Cu med, cong Ac cuf]
+14.4 +9.7 73 +13 +13 1016.0 978.2
21 13.06 З 3-4
{12}
>70 км {гроза} ясно +13.9 +10.2 78 +13 +13 1016.4 978.5
22 13.06 ЮЗ 3-3
{3}
>70 км ясно +12.8 +9.8 82 +11 +11 1017.4 979.3
23 13.06 Ю 3-4
{4}
>70 км ясно +12.7 +9.2 79 +11 +11 1017.8 979.7
00 14.06 Ю 4 >70 км {гроза} 1/0
[Ac trans]
+13.6 +9.6 77 +12 +12 1017.4 979.4
01 14.06 Ю 3-4
{5}
>70 км ясно +12.7 +9.1 79 +11 +11 1017.4 979.3
02 14.06 Ю 5-6
{6}
>70 км ясно +12.7 +9.4 80 +11 +11 1017.4 979.3
03 14.06 Ю 5-5
{7}
>70 км ясно +12.9 +9.4 79 +11 +11 1017.7 979.6
04 14.06 Ю 5-6
{6}
>70 км 1/0
[Ci fib]
+13.1 +9.6 79 +11 +11 1017.7 979.7
05 14.06 Ю 4-5
{6}
>70 км ясно +15.6 +10.6 72 +15 +16 1017.4 979.7
06 14.06 ЮВ 4 >70 км ясно +19.1 +11.8 63 +20 +23 1016.7 979.5 +12.1 +19.1
07 14.06 СВ 2-3
{6}
>70 км ясно +19.5 +12.4 64 +21 +28 комфорт 1017.0 979.8
08 14.06 В 3-5
{8}
>70 км 1/0
[Cs]
+22.8 +13.2 55 +26 +34 жарко 1016.4 979.7
09 14.06 Ю 5 >70 км 6/0
[Ac lent Cs]
+25.5 +9.0 35 +26 +32 жарко 1016.3 979.8
10 14.06 Ю 5 >70 км 8/0
[Ac und Cs]
+25.9 +7.0 30 +26 +30 жарко 1016.1 979.7
11 14.06 ЮВ 6-8
{8}
>70 км 9/0
[Ac und]
+27.5 +9.4 32 +28 +30 жарко 1015.6 979.4
12 14.06 Ю 2 >70 км 8/1 1500 м
[Cu hum Ac trans Cs]
+27.4 +9.4 32 +28 +37 жарко 1015.2 979.0
13 14.06 Ю 5 >70 км 8/1 1500 м
[Cu hum Ac lent Cs]
+28.2 +9.7 31 +28 +33 жарко 1014.9 978.8
14 14.06 Ю 5 >70 км 9/1 1500 м
[Cu hum Ac und Cs]
+27.9 +10.5 34 +28 +32 жарко 1014.5 978.4
15 14.06 ЮЗ 4 >70 км 10/1 1500 м
[Cu hum Ac trans Cs]
+27.2 +12.8 41 +29 +31 жарко 1014.0 977.9
16 14.06 ЮЗ 3 >70 км 9/1 1500 м
[Cu hum Ac As Cs]
+26.6 +14.0 46 +29 +31 жарко 1014.2 978.0
17 14.06 СЗ 3 >70 км в посл. час дождь 10/0
[Ac As]
+23.4 +15.5 61 +28 +29 душно 1014.0 977.5
18 14.06 З 4 >70 км в посл. час дождь 10/1 1000 м
[Sc Ac As]
+23.0 +12.1 50 +26 +26 жарко 1014.3 977.6 +18.0 +29.0 0.0
19 14.06 СВ 2 >70 км 10/0
[Ac As]
+22.9 +11.0 47 +25 +25 комфорт 1013.7 977.0
20 14.06 СВ 3 >70 км 9/0
[Ac cast]
+22.0 +12.2 54 +24 +24 комфорт 1013.5 976.8
21 14.06 С 2 >70 км 9/0
[Ac cast]
+20.6 +12.1 58 +23 +23 комфорт 1013.2 976.3
22 14.06 С 2-4
{4}
70 км 9/0
[As op]
+19.8 +12.3 62 +22 +22 комфорт 1012.6 975.6
23 14.06 С 3 70 км 9/5 1500 м
[Sc As op]
+20.1 +11.6 58 +22 +22 комфорт 1011.4 974.5
00 15.06 СВ 3 70 км 9/0
[As trans Cs]
+19.6 +11.9 61 +21 +21 комфорт 1010.4 973.5
01 15.06 В 1 70 км 9/0
[As trans Cs]
+18.6 +12.5 68 +20 +20 1009.7 972.7
02 15.06 Ю 1 70 км 9/0
[As op Cs]
+18.1 +13.0 72 +19 +19 1008.8 971.8
03 15.06 Ю 2 50 км 9/0
[Ac trans Cs]
+16.8 +12.4 75 +17 +17 1008.1 970.9
04 15.06 ЮВ 1-2
{2}
50 км 8/0
[Ac cast Ci fib]
+18.5 +12.0 66 +20 +20 1007.9 970.9
05 15.06 З 1-2
{3}
50 км 8/0
[Ac cast Ci fib]
+18.0 +13.1 73 +19 +20 1007.8 970.8
06 15.06 Ю 1 50 км 5/0
[Ac trans Ci]
+20.7 +14.6 68 +25 +28 комфорт 1007.5 970.9 +16.5 +23.4
07 15.06 Ю 3-4
{4}
50 км 4/0
[Ac trans Ci sp]
+22.1 +15.2 65 +26 +31 душно 1007.9 971.4
08 15.06 ЮЗ 10-13
{13}
50 км 5/0
[Ac trans Ci sp]
+25.0 +13.7 49 +27 +28 жарко 1008.4 972.2
09 15.06 З 9 50 км 5/0
[Ac trans Ci sp]
+25.1 +13.8 49 +27 +28 жарко 1009.2 973.0
10 15.06 ЮЗ 10 50 км 6/1 1300 м
[Cu hum Ac trans Ci sp]
+23.6 +13.0 51 +26 +26 жарко 1010.1 973.7
11 15.06 ЮЗ 9-12
{14}
50 км 5/3 1300 м
[Cu med, cong Ac trans Ci fib]
+25.1 +13.8 49 +27 +28 жарко 1011.4 975.1
12 15.06 З 9 >70 км 6/4 1500 м
[Cu med, cong Ac lent Ci]
+23.4 +12.9 52 +26 +27 жарко 1012.2 975.7
13 15.06 З 7 >70 км 8/4 1500 м
[Cu med, cong Ac cuf Ci]
+25.6 +13.5 47 +28 +29 жарко 1012.2 976.0
14 15.06 З 7 >70 км 8/3 1500 м
[Cu med, cong Ac lent Cs]
+24.7 +12.7 47 +27 +28 жарко 1012.9 976.5
15 15.06 З 7 >70 км 8/3 1500 м
[Cu med, cong Ac cuf Ci sp]
+24.7 +13.4 49 +27 +28 жарко 1013.1 976.7
16 15.06 З 7 >70 км 5/1 1500 м
[Cu med, cong Ci sp]
+23.7 +13.8 54 +26 +27 жарко 1013.0 976.5
17 15.06 З 6 >70 км 4/1 1500 м
[Cu med, cong Ci sp]
+23.1 +12.4 51 +26 +27 жарко 1013.2 976.6
18 15.06 З 6 >70 км 4/1 1500 м
[Cu hum Ci sp]
+22.4 +11.8 51 +25 +25 комфорт 1013.5 976.8 +19.6 +26.2
19 15.06 СЗ 3 >70 км 4/1 1500 м
[Cu hum Ci sp]
+19.8 +12.2 62 +22 +22 комфорт 1014.7 977.6
20 15.06 СЗ 4-5
{5}
>70 км 3/0
[Ci sp]
+17.3 +12.0 71 +17 +17 1015.5 978.1
21 15.06 С 3 >70 км 3/0
[Ci sp]
+17.1 +12.0 72 +17 +17 1015.7 978.3
22 15.06 СЗ 3 >70 км 4/1 1470 м
[Sc Ci]
+15.9 +11.6 76 +15 +15 1016.4 978.8
23 15.06 С 3-4
{5}
70 км 5/0
[Ci]
+15.6 +11.7 78 +15 +15 1017.4 979.7
00 16.06 СЗ 3 70 км 4/0
[Ci fib]
+15.4 +11.3 77 +15 +15 1017.7 980.0
01 16.06 З 4-4
{4}
70 км 5/0
[Ci]
+12.8 +10.6 86 +11 +11 1018.5 980.4
02 16.06 Ю 2 60 км 8/0
[Ac As Cs]
+12.4 +10.7 89 +11 +11 1018.6 980.4
03 16.06 ЮЗ 2 40 км 9/0
[Ac As Cs]
+13.0 +10.9 87 +12 +12 1018.4 980.3
04 16.06 ЮЗ 2 45 км 9/0
[Ac As Cs]
+12.5 +10.8 89 +12 +12 1018.7 980.6
05 16.06 ЮЗ 1 50 км осадки на расстоянии 8/0
[Ac cast]
+14.0 +11.8 87 +14 +15 1018.6 980.7
06 16.06 ЮЗ 2 50 км 9/0
[Ac As]
+14.9 +12.2 84 +15 +16 1019.1 981.3 +11.9 +22.4
07 16.06 Ю 1 50 км 9/0
[Ac cast]
+15.8 +12.0 78 +17 +20 1019.8 982.1
08 16.06 ЮЗ 2 50 км 10/4 1500 м
[Sc Ac As]
+16.6 +12.4 76 +17 +19 1020.2 982.5
09 16.06 З 2 60 км 9/3 900 м
[Cu med, cong Ac As]
+18.1 +12.8 71 +19 +23 1020.2 982.7
10 16.06 З 3 50 км 9/3 900 м
[Cu med, cong Ac As]
+18.3 +13.2 72 +19 +23 1020.6 983.2
11 16.06 СЗ 2 40 км 9/3 600 м
[Cu med, cong Ac As]
+18.9 +13.6 71 +20 +25 1020.7 983.3
12 16.06 СВ 2 28 км 10/5 600 м
[Cb calv Ac As]
+19.1 +11.6 62 +21 +23 комфорт 1020.8 983.4
13 16.06 ЮВ 2 20 км слаб. ливневой дождь 10/6 600 м
[Cb calv Ac As]
+17.1 +14.3 84 +17 +19 1021.5 983.9
14 16.06 Ю 2 30 км слаб. дождь 10/3 300 м
[Cu med, cong Ac As]
+17.8 +15.0 84 +18 +21 1021.5 984.0
15 16.06 ЮЗ 2 30 км в посл. час дождь {ливн. осадки} 9/3 300 м
[Cu med, cong Ac As]
+18.3 +13.6 74 +19 +22 1021.4 983.9 0.1
16 16.06 Ю 2 30 км 9/3 400 м
[Cu med, cong Ac As]
+18.7 +14.6 77 +20 +22 1021.1 983.7
17 16.06 Ю 3 30 км 9/3 480 м
[Cu med, cong Ac As]
+18.1 +14.1 77 +18 +19 1021.3 983.8
18 16.06 ЮЗ 4 50 км {ливн. осадки, дождь} 9/4 300 м
[Cu Sc Ac As]
+17.4 +14.0 80 +17 +17 1021.5 983.9 +14.7 +20.2
19 16.06 ЮЗ 3 50 км в посл. час ливневой дождь 9/6 900 м
[Cb calv Ac As]
+16.5 +13.0 80 +16 +16 1021.6 983.9
20 16.06 СВ 1 60 км в посл. час ливневой дождь 9/3 1500 м
[Sc Ac As]
+15.7 +13.6 87 +16 +16 1022.1 984.3
21 16.06 ЮЗ 2 60 км {ливн. осадки} 9/0
[Ac As]
+15.7 +13.9 89 +16 +16 1022.1 984.3 0.0
22 16.06 ЮЗ 2 50 км 9/0
[Ac As]
+15.0 +13.6 91 +15 +15 1022.3 984.4
23 16.06 ЮЗ 3 50 км 6/0
[Ac As]
+13.6 +12.6 94 +12 +12 1022.4 984.3
00 17.06 Ю 3 50 км {ливн. осадки} 9/0
[Ac cast]
+13.8 +12.7 93 +13 +13 1022.7 984.6 0.0
01 17.06 ЮЗ 3-3
{4}
50 км 3/0
[Ac cast]
+12.3 +11.5 95 +11 +11 1022.9 984.6
02 17.06 Ю 2-2
{4}
40 км местами туман поземный 1/0
[Ac cast]
+12.7 +11.9 95 +12 +12 1022.7 984.4
03 17.06 Ю 2 3000 м туман на расстоянии 1/0
[Ac trans]
+12.1 +11.6 97 +11 +11 1022.7 984.4
04 17.06 ЮЗ 3-3
{3}
800 м туман 1/0
[Ac trans]
+10.7 +10.2 97 +9 +9 1023.4 984.8
05 17.06 З 2-3
{3}
600 м туман ясно +12.4 +11.8 96 +11 +13 1022.9 984.6
06 17.06 ЮЗ 2 4000 м в посл. час туман 1/0
[Ac lent]
+14.9 +12.4 85 +15 +18 1023.0 985.0 +10.3 +17.4 0.0
07 17.06 ЮВ 1-2
{3}
40 км 3/3 1500 м
[Sc]
+18.0 +13.4 74 +19 +25 1022.7 985.1
08 17.06 В 2-3
{4}
50 км 1/1 800 м
[Cu med, cong]
+19.6 +12.8 65 +22 +31 комфорт 1022.1 984.8
09 17.06 В 2 60 км 4/4 1000 м
[Cu med, cong]
+20.7 +12.3 59 +24 +32 комфорт 1021.7 984.5
10 17.06 С 3-5
{5}
60 км 5/5 1260 м
[Cu med, cong]
+22.1 +10.3 47 +24 +31 комфорт 1021.0 984.0
11 17.06 СВ 2-5
{5}
60 км 6/6 1320 м
[Cu med, cong]
+22.2 +11.0 49 +24 +31 комфорт 1020.7 983.7
12 17.06 В 3 70 км 5/5 1440 м
[Cu med, cong]
+23.8 +10.8 44 +25 +32 комфорт 1020.1 983.3
13 17.06 В 3-6
{7}
70 км 4/4 1500 м
[Cu med, cong]
+24.0 +11.0 44 +25 +33 комфорт 1019.7 983.0
14 17.06 В 3-6
{7}
70 км 4/4 1500 м
[Cu med, cong Ac cuf]
+23.7 +11.5 46 +25 +31 комфорт 1019.4 982.6
15 17.06 В 3 >70 км 4/4 1500 м
[Cu med, cong Ac cuf]
+24.0 +10.6 43 +25 +30 комфорт 1018.9 982.2
17 17.06 СВ 3-6
{7}
>70 км 1/1 1500 м
[Cu med, cong Ac cuf]
+24.5 +11.1 43 +26 +28 жарко 1017.9 981.3
18 17.06 В 3 >70 км 1/1 1500 м
[Cu hum]
+23.7 +11.1 45 +25 +26 комфорт 1017.7 981.0 +15.0 +25.8
19 17.06 В 3-5
{6}
>70 км 1/0
[Ci]
+22.4 +11.3 49 +25 +25 комфорт 1017.9 981.0
20 17.06 В 2-4
{4}
>70 км ясно +20.9 +11.9 56 +24 +24 комфорт 1018.3 981.2

 

Местоположение метеостанции Биндерслебен (Германия): широта 50.98 долгота 10.97 высота над уровнем моря 323 м.

В архиве по умолчанию представлена погода в Биндерслебене за последнюю неделю. Архивные данные за месяц целиком и за предыдущие месяцы, начиная с января 2011 года, Вы можете получить, выбрав интересующий диапазон дат из раскрывающегося списка и нажав кнопку "Ввод!".


*Определитесь, кто Вы:
робот инопланетянин человек

Внимание! Время в таблицах - всемирное. Для получения местного времени необходимо прибавить поправку, которая равна 1 ч.

Смотрите также архив погоды в соседних городах и на ближайших метеорологических станциях:

Погода в Шмюкке (Германия) (39 км)
Погода в Айзенахе (Германия) (42 км)
Погода в Артерне (Германия) (50 км)
Погода в Нойхаусе (Германия) (55 км)
Погода в Майнингене (Германия) (62 км)
Погода в Лайнефельде-Ворбисе (Германия) (65 км)
Погода в Остерфельде (Германия) (68 км)
Погода в Шлайце (Германия) (75 км)
Погода в Харцгероде (Германия) (75 км)
Погода в Кобурге (Германия) (78 км)

Пояснения к столбцам:

Ветер - указаны скорость ветра в м/с - средняя за 10 мин, порывы в срок и между сроками (в фигурных скобках) и направление, откуда дует ветер: С - северный, СВ - северо-восточный, В - восточный, ЮВ - юго-восточный, Ю - южный, ЮЗ - юго-западный, З - западный, СЗ - северо-западный.
Видимость - горизонтальная дальность видимости в метрах или километрах. При видимости от 1 до 10 км при отсутствии осадков обычно наблюдается дымка, при ухудшении видимости до 1 км и менее - туман. В сухую погоду видимость может ухудшаться дымом, пылью или мглою.
Явления - указаны атмосферные явления, наблюдавшиеся в срок или в последний час перед сроком; фигурными скобками обозначены явления, наблюдавшиеся между сроками (за 1-3 часа до срока); квадратными скобками обозначены град или гололедные отложения с указанием их диаметра в мм.
Облачность - указаны через наклонную черту общая и нижняя облачность в баллах и высота нижней границы облаков в метрах; квадратными скобками обозначены формы облаков: Ci - перистые, Cs - перисто-слоистые, Cc - перисто-кучевые, Ac - высококучевые, As - высокослоистые, Sc - слоисто-кучевые, Ns - слоисто-дождевые, Cu - кучевые, Cb - кучево-дождевые. Подробнее классификацию облаков см. в Атласе облаков (PDF).
T - Температура воздуха - температура, измеренная на высоте 2 м над землей.
Td - Температура точки росы - температура, при понижении до которой содержащийся в воздухе водяной пар достигнет насыщения.
f - Относительная влажность воздуха - влажноcть воздуха, измеренная на высоте 2 м над землей.
Te - Эффективная температура - температура, которую ощущает одетый по сезону человек в тени. Характеристика душности погоды. При расчете учитывается влияние влажности воздуха и скорости ветра на теплоощущения человека.
Tes - Эффективная температура на солнце - температура, которую ощущает человек, с поправкой на солнечный нагрев. Характеристика знойности погоды. Зависит от высоты солнца над горизонтом, облачности и скорости ветра. Ночью, в пасмурную погоду, а также при ветре 12 м/с и более поправка равна нулю.
P - Атмосферное давление - приведенное к уровню моря атмосферное давление.
Po - Атмосферное давление - измеренное на уровне метеостанции атмосферное давление.
Tmin - Минимальная температура - минимум температуры воздуха на высоте 2 м над землей.
Tmax - Максимальная температура - максимум температуры воздуха на высоте 2 м над землей.
R - Количество осадков - Количество выпавших осадков за период времени, мм. При наведении курсора мыши на число - период времени, за который выпало указанное количество осадков.
R24 - Количество осадков - Количество выпавших осадков за 24 часа, мм.
S - Снежный покров - Высота снежного покрова, см. При наведении курсора мыши на число - состояние снежного покрова и степень покрытия местности в баллах.